Stündliche Wetter Holov'yatyne

Heute, 21 Juni, Montag

Zeit Temperatur Niederschläge Wind Luftdruck Luftfeuchtigkeit
00:00 +20°C° 0 mm 4 m/S 749 mmHg 90%
01:00 +19°C° 0 mm 3 m/S 749 mmHg 91%
02:00 +19°C° 0 mm 3 m/S 748 mmHg 93%
03:00 +20°C° 0 mm 3 m/S 748 mmHg 92%
04:00 +20°C° 0 mm 3 m/S 748 mmHg 92%
05:00 +20°C° 0 mm 2 m/S 748 mmHg 91%
06:00 +21°C° 0 mm 3 m/S 748 mmHg 86%
07:00 +24°C° 0 mm 3 m/S 748 mmHg 80%
08:00 +25°C° 0 mm 3 m/S 748 mmHg 75%
09:00 +26°C° 0 mm 3 m/S 748 mmHg 72%
10:00 +27°C° 0 mm 3 m/S 748 mmHg 68%
11:00 +29°C° 0 mm 4 m/S 748 mmHg 65%
12:00 +29°C° 0 mm 4 m/S 748 mmHg 63%
13:00 +30°C° 0 mm 3 m/S 748 mmHg 61%
14:00 +30°C° 0 mm 3 m/S 748 mmHg 59%
15:00 +30°C° 0 mm 3 m/S 748 mmHg 62%
16:00 +30°C° 0 mm 3 m/S 748 mmHg 64%
17:00 +29°C° 0 mm 3 m/S 748 mmHg 66%
18:00 +28°C° 0 mm 3 m/S 749 mmHg 71%
19:00 +26°C° 0 mm 3 m/S 749 mmHg 76%
20:00 +25°C° 0 mm 4 m/S 749 mmHg 81%
21:00 +24°C° 0 mm 3 m/S 749 mmHg 82%
22:00 +24°C° 0 mm 3 m/S 749 mmHg 82%
23:00 +22°C° 0 mm 3 m/S 749 mmHg 82%

Morgen, 22 Juni, Dienstag

Zeit Temperatur Niederschläge Wind Luftdruck Luftfeuchtigkeit
00:00 +21°C° 0 mm 3 m/S 749 mmHg 83%
01:00 +21°C° 0 mm 2 m/S 749 mmHg 84%
02:00 +20°C° 0 mm 2 m/S 748 mmHg 85%
03:00 +20°C° 0 mm 3 m/S 749 mmHg 86%
04:00 +20°C° 0 mm 3 m/S 749 mmHg 86%
05:00 +20°C° 0 mm 3 m/S 749 mmHg 87%
06:00 +20°C° 0.2 mm 3 m/S 749 mmHg 84%
07:00 +21°C° 0.2 mm 4 m/S 749 mmHg 80%
08:00 +22°C° 0.2 mm 4 m/S 749 mmHg 77%
09:00 +25°C° 0.1 mm 5 m/S 749 mmHg 70%
10:00 +26°C° 0.1 mm 5 m/S 749 mmHg 63%
11:00 +27°C° 0.1 mm 6 m/S 749 mmHg 55%
12:00 +28°C° 0 mm 6 m/S 749 mmHg 55%
13:00 +29°C° 0 mm 5 m/S 749 mmHg 54%
14:00 +29°C° 0 mm 5 m/S 749 mmHg 53%
15:00 +29°C° 0 mm 5 m/S 749 mmHg 56%
16:00 +29°C° 0 mm 4 m/S 749 mmHg 59%
17:00 +29°C° 0 mm 4 m/S 749 mmHg 62%
18:00 +27°C° 0 mm 4 m/S 749 mmHg 67%
19:00 +26°C° 0 mm 3 m/S 749 mmHg 72%
20:00 +24°C° 0 mm 3 m/S 749 mmHg 76%
21:00 +24°C° 0 mm 3 m/S 749 mmHg 78%
22:00 +23°C° 0 mm 2 m/S 750 mmHg 80%
23:00 +21°C° 0 mm 2 m/S 750 mmHg 82%

übermorgen, 23 Juni, Mittwoch

Zeit Temperatur Niederschläge Wind Luftdruck Luftfeuchtigkeit
00:00 +21°C° 0 mm 2 m/S 750 mmHg 84%
01:00 +21°C° 0 mm 2 m/S 749 mmHg 85%
02:00 +21°C° 0 mm 2 m/S 749 mmHg 87%
03:00 +21°C° 0 mm 2 m/S 749 mmHg 88%
04:00 +21°C° 0 mm 2 m/S 749 mmHg 89%
05:00 +21°C° 0 mm 2 m/S 749 mmHg 89%
06:00 +22°C° 0 mm 3 m/S 749 mmHg 85%
07:00 +25°C° 0 mm 4 m/S 750 mmHg 80%
08:00 +26°C° 0 mm 4 m/S 750 mmHg 75%
09:00 +27°C° 0 mm 4 m/S 750 mmHg 71%
10:00 +27°C° 0 mm 4 m/S 750 mmHg 67%
11:00 +28°C° 0 mm 4 m/S 750 mmHg 64%
12:00 +29°C° 0 mm 4 m/S 750 mmHg 63%
13:00 +29°C° 0 mm 4 m/S 750 mmHg 61%
14:00 +30°C° 0 mm 4 m/S 750 mmHg 60%
15:00 +29°C° 0 mm 4 m/S 750 mmHg 63%
16:00 +29°C° 0 mm 3 m/S 750 mmHg 66%
17:00 +29°C° 0 mm 3 m/S 750 mmHg 69%
18:00 +28°C° 0 mm 3 m/S 750 mmHg 72%
19:00 +27°C° 0 mm 3 m/S 750 mmHg 75%
20:00 +25°C° 0 mm 3 m/S 750 mmHg 78%
21:00 +25°C° 0.1 mm 3 m/S 750 mmHg 80%
22:00 +24°C° 0.1 mm 3 m/S 750 mmHg 83%
23:00 +24°C° 0.1 mm 3 m/S 751 mmHg 86%

24 Juni, Donnerstag

Zeit Temperatur Niederschläge Wind Luftdruck Luftfeuchtigkeit
00:00 +24°C° 0 mm 2 m/S 751 mmHg 87%
01:00 +24°C° 0 mm 2 m/S 751 mmHg 87%
02:00 +23°C° 0 mm 1 m/S 751 mmHg 88%
03:00 +23°C° 0 mm 2 m/S 751 mmHg 88%
04:00 +23°C° 0 mm 2 m/S 751 mmHg 88%
05:00 +23°C° 0 mm 2 m/S 751 mmHg 88%
06:00 +25°C° 0 mm 3 m/S 751 mmHg 81%
07:00 +26°C° 0 mm 3 m/S 751 mmHg 74%
08:00 +27°C° 0 mm 4 m/S 751 mmHg 68%
09:00 +29°C° 0 mm 4 m/S 751 mmHg 64%
10:00 +30°C° 0 mm 4 m/S 751 mmHg 60%
11:00 +32°C° 0 mm 4 m/S 751 mmHg 56%
12:00 +33°C° 0 mm 4 m/S 750 mmHg 54%
13:00 +33°C° 0 mm 4 m/S 750 mmHg 52%
14:00 +34°C° 0 mm 4 m/S 750 mmHg 50%
15:00 +33°C° 0 mm 4 m/S 750 mmHg 53%
16:00 +33°C° 0 mm 4 m/S 750 mmHg 57%
17:00 +31°C° 0 mm 3 m/S 750 mmHg 60%
18:00 +29°C° 0 mm 3 m/S 750 mmHg 66%
19:00 +27°C° 0 mm 3 m/S 750 mmHg 71%
20:00 +26°C° 0 mm 3 m/S 750 mmHg 76%
21:00 +25°C° 0 mm 2 m/S 750 mmHg 78%
22:00 +24°C° 0 mm 2 m/S 750 mmHg 80%
23:00 +23°C° 0 mm 2 m/S 751 mmHg 82%

25 Juni, Freitag

Zeit Temperatur Niederschläge Wind Luftdruck Luftfeuchtigkeit
00:00 +21°C° 0 mm 2 m/S 751 mmHg 84%
01:00 +21°C° 0 mm 2 m/S 750 mmHg 86%
02:00 +21°C° 0 mm 2 m/S 750 mmHg 87%
03:00 +21°C° 0 mm 2 m/S 750 mmHg 88%
04:00 +21°C° 0 mm 2 m/S 750 mmHg 88%
05:00 +21°C° 0 mm 2 m/S 750 mmHg 89%
06:00 +24°C° 0 mm 2 m/S 750 mmHg 84%
07:00 +25°C° 0 mm 2 m/S 751 mmHg 79%
08:00 +27°C° 0 mm 3 m/S 751 mmHg 74%
09:00 +28°C° 0.1 mm 3 m/S 751 mmHg 69%
10:00 +29°C° 0.1 mm 3 m/S 751 mmHg 65%
11:00 +30°C° 0.1 mm 2 m/S 751 mmHg 60%
12:00 +31°C° 0 mm 3 m/S 750 mmHg 58%
13:00 +31°C° 0 mm 3 m/S 750 mmHg 57%
14:00 +33°C° 0 mm 3 m/S 750 mmHg 55%
15:00 +31°C° 0.1 mm 3 m/S 750 mmHg 57%
16:00 +31°C° 0.1 mm 3 m/S 750 mmHg 60%
17:00 +31°C° 0.1 mm 3 m/S 750 mmHg 62%
18:00 +30°C° 0 mm 2 m/S 750 mmHg 68%
19:00 +28°C° 0 mm 2 m/S 749 mmHg 73%
20:00 +27°C° 0 mm 2 m/S 749 mmHg 78%
21:00 +26°C° 0 mm 2 m/S 749 mmHg 81%
22:00 +25°C° 0 mm 2 m/S 749 mmHg 84%
23:00 +24°C° 0 mm 2 m/S 749 mmHg 87%

26 Juni, Samstag

Zeit Temperatur Niederschläge Wind Luftdruck Luftfeuchtigkeit
00:00 +24°C° 0 mm 2 m/S 749 mmHg 88%
01:00 +24°C° 0 mm 2 m/S 749 mmHg 89%
02:00 +23°C° 0 mm 2 m/S 749 mmHg 91%
03:00 +23°C° 0.3 mm 2 m/S 749 mmHg 91%
04:00 +23°C° 0.3 mm 2 m/S 749 mmHg 91%
05:00 +23°C° 0.3 mm 2 m/S 749 mmHg 91%
06:00 +24°C° 0.4 mm 2 m/S 749 mmHg 87%
07:00 +26°C° 0.4 mm 3 m/S 749 mmHg 83%
08:00 +27°C° 0.4 mm 3 m/S 749 mmHg 80%
09:00 +28°C° 0.2 mm 3 m/S 749 mmHg 74%
10:00 +30°C° 0.2 mm 3 m/S 749 mmHg 68%
11:00 +31°C° 0.2 mm 3 m/S 749 mmHg 63%
12:00 +31°C° 0.4 mm 3 m/S 749 mmHg 60%
13:00 +33°C° 0.4 mm 3 m/S 749 mmHg 58%
14:00 +33°C° 0.4 mm 3 m/S 749 mmHg 55%
15:00 +33°C° 0.1 mm 3 m/S 748 mmHg 57%
16:00 +33°C° 0.1 mm 3 m/S 748 mmHg 58%
17:00 +33°C° 0.1 mm 3 m/S 747 mmHg 60%
18:00 +29°C° 0.9 mm 3 m/S 747 mmHg 67%
19:00 +25°C° 0.9 mm 3 m/S 748 mmHg 74%
20:00 +21°C° 0.9 mm 2 m/S 748 mmHg 81%
21:00 +21°C° 1.5 mm 2 m/S 748 mmHg 84%
22:00 +21°C° 1.5 mm 2 m/S 749 mmHg 87%
23:00 +20°C° 1.5 mm 2 m/S 749 mmHg 90%
Mehr zeigen

Wir brauchen deine Erlaubnis

Meteoprog und unser Service Anbieter werden persönliche Daten aufbewahren, so wie Cookies, Geräte Bezeichnung oder ähnliche Technologien von deinem Gerät und Prozess, so wie Persönliche Daten Inhalte und Werbungen, genauso wie social Media und den Verkehr zu analysieren.

  • Aufbewahrung und/oder Zugang zu deiner Geräte Informationen.

    Cookies, Geräte Bezeichnung oder andere Informationen, können aufbewahrt oder Zugang zu deinem Gerät erhalten, für den Grund, der oben angegeben wird.

  • Personalisierte Werbung und Inhalte, Messungen, Einblick in das Publikum und Produkt Entwicklung.

    Werbungen und Inhalte können personalisiert werden, basierend auf ein Profil. Mehr Daten können besser personalisierte Werbungen und Inhalte hinzufügen. Werbung und Inhalte können gezeigt und gemessen werden. Einblicke über das Publikum, welche die Werbung gesehen haben und den Inhalt, können abgeleitet werden. So wie Daten können genutzt werden, um es zu verbessern oder die Benutzer Erfahrung zu verbessern das System und die Software.

Wenn du “Ich stimme zu” klickst, erlaubst du uns, die Cookies zu benutzen die Geräte Bezeichnung, den Web oder ähnliche Technologien zu benutzen. Deine Settings, können in deinem Gerät bei deinem Browser geändert werden.

Für den bestimmten Zweck, berechtigten Interessen beruhen darauf, mehr als auf den Inhalt. Du kannst mehr darüber in unseren Privaten und Cookie Politik lesen.